TimeCST,TemperatureF,Dew PointF,Humidity,Sea Level PressureIn,VisibilityMPH,Wind Direction,Wind SpeedMPH,Gust SpeedMPH,PrecipitationIn,Events,Conditions,WindDirDegrees,DateUTC
12:15 AM,32.9,23.7,69,30.05,10.0,South,8.1,-,N/A,,Clear,170,2012-11-25 06:15:00
12:35 AM,32.5,24.1,71,30.05,10.0,South,6.9,-,N/A,,Clear,170,2012-11-25 06:35:00
12:55 AM,32.7,23.9,70,30.05,10.0,South,8.1,-,N/A,,Clear,180,2012-11-25 06:55:00
1:15 AM,32.9,24.4,71,30.04,10.0,South,9.2,-,N/A,,Clear,180,2012-11-25 07:15:00
1:35 AM,32.9,24.8,72,30.03,10.0,South,9.2,-,N/A,,Clear,190,2012-11-25 07:35:00
1:55 AM,33.1,25.2,73,30.04,10.0,South,8.1,-,N/A,,Clear,190,2012-11-25 07:55:00
2:15 AM,33.1,25.3,73,30.03,10.0,South,8.1,-,N/A,,Clear,180,2012-11-25 08:15:00
2:35 AM,32.9,25.7,75,30.03,10.0,South,9.2,-,N/A,,Clear,170,2012-11-25 08:35:00
2:55 AM,33.1,25.3,73,30.01,10.0,South,8.1,-,N/A,,Clear,170,2012-11-25 08:55:00
3:15 AM,33.3,25.5,73,30.00,10.0,South,9.2,-,N/A,,Clear,180,2012-11-25 09:15:00
3:35 AM,33.1,25.7,74,29.99,10.0,South,9.2,-,N/A,,Clear,180,2012-11-25 09:35:00
3:55 AM,33.4,25.9,74,30.00,10.0,South,9.2,-,N/A,,Clear,190,2012-11-25 09:55:00
4:15 AM,34.0,26.4,74,29.99,10.0,South,8.1,-,N/A,,Clear,180,2012-11-25 10:15:00
4:35 AM,34.7,26.6,72,29.98,10.0,South,10.4,-,N/A,,Clear,180,2012-11-25 10:35:00
4:55 AM,35.6,26.4,69,29.98,10.0,South,9.2,-,N/A,,Clear,190,2012-11-25 10:55:00
5:15 AM,36.0,26.2,68,29.97,10.0,South,10.4,-,N/A,,Clear,180,2012-11-25 11:15:00
5:35 AM,36.0,25.9,67,29.96,10.0,South,11.5,-,N/A,,Clear,180,2012-11-25 11:35:00
5:55 AM,35.8,25.7,67,29.96,10.0,South,11.5,-,N/A,,Clear,190,2012-11-25 11:55:00
6:15 AM,35.6,25.9,68,29.96,10.0,SSW,9.2,-,N/A,,Clear,200,2012-11-25 12:15:00
6:35 AM,35.6,25.9,68,29.96,10.0,SSW,11.5,-,N/A,,Clear,200,2012-11-25 12:35:00
6:55 AM,35.6,25.9,68,29.98,10.0,SSW,9.2,-,N/A,,Clear,200,2012-11-25 12:55:00
7:15 AM,36.0,25.9,67,29.98,10.0,South,9.2,-,N/A,,Clear,190,2012-11-25 13:15:00
7:35 AM,36.5,26.4,67,29.98,10.0,SSW,8.1,-,N/A,,Clear,200,2012-11-25 13:35:00
7:55 AM,37.6,26.4,64,29.98,10.0,SSW,9.2,-,N/A,,Clear,200,2012-11-25 13:55:00
8:15 AM,38.5,26.6,62,29.98,10.0,SSW,11.5,-,N/A,,Clear,200,2012-11-25 14:15:00
8:35 AM,39.9,27.0,60,29.98,10.0,SSW,13.8,-,N/A,,Clear,210,2012-11-25 14:35:00
8:55 AM,40.6,27.3,59,29.98,10.0,SSW,12.7,-,N/A,,Clear,210,2012-11-25 14:55:00
9:15 AM,41.9,28.4,59,29.98,10.0,SSW,11.5,-,N/A,,Clear,210,2012-11-25 15:15:00
9:35 AM,43.0,28.8,57,29.99,10.0,SSW,8.1,-,N/A,,Clear,210,2012-11-25 15:35:00
9:55 AM,45.0,29.1,54,29.98,10.0,SSW,10.4,-,N/A,,Clear,210,2012-11-25 15:55:00
10:15 AM,46.0,29.8,53,29.98,10.0,SW,10.4,-,N/A,,Clear,220,2012-11-25 16:15:00
10:35 AM,46.8,28.8,50,29.97,10.0,SW,12.7,-,N/A,,Clear,230,2012-11-25 16:35:00
10:55 AM,48.2,30.0,49,29.97,10.0,SW,12.7,-,N/A,,Clear,230,2012-11-25 16:55:00
11:15 AM,49.3,29.8,47,29.96,10.0,SW,12.7,-,N/A,,Clear,230,2012-11-25 17:15:00
11:35 AM,49.5,30.4,48,29.95,10.0,SW,12.7,-,N/A,,Clear,220,2012-11-25 17:35:00
11:55 AM,50.5,30.7,47,29.95,10.0,SW,12.7,-,N/A,,Clear,220,2012-11-25 17:55:00
12:15 PM,51.3,30.7,45,29.93,10.0,SW,12.7,-,N/A,,Clear,220,2012-11-25 18:15:00
12:35 PM,51.4,30.9,45,29.93,10.0,WSW,11.5,16.1,N/A,,Clear,240,2012-11-25 18:35:00
12:55 PM,51.8,30.0,43,29.92,10.0,SW,10.4,-,N/A,,Clear,220,2012-11-25 18:55:00
1:15 PM,53.2,30.6,42,29.93,10.0,SW,9.2,-,N/A,,Clear,230,2012-11-25 19:15:00
1:35 PM,53.8,31.5,43,29.93,10.0,WSW,9.2,-,N/A,,Clear,250,2012-11-25 19:35:00
1:55 PM,53.4,30.9,42,29.92,10.0,WSW,8.1,-,N/A,,Unknown,250,2012-11-25 19:55:00
2:15 PM,53.4,31.1,43,29.93,10.0,WSW,8.1,-,N/A,,Unknown,250,2012-11-25 20:15:00
2:35 PM,53.6,31.5,43,29.93,10.0,West,9.2,-,N/A,,Clear,260,2012-11-25 20:35:00
2:55 PM,53.6,31.3,43,29.93,10.0,WSW,6.9,-,N/A,,Clear,250,2012-11-25 20:55:00
3:15 PM,53.4,31.3,43,29.93,10.0,WSW,3.5,-,N/A,,Clear,240,2012-11-25 21:15:00
3:35 PM,53.6,32.7,45,29.94,10.0,WSW,4.6,-,N/A,,Clear,240,2012-11-25 21:35:00
3:55 PM,52.7,33.3,48,29.94,10.0,WSW,3.5,-,N/A,,Clear,240,2012-11-25 21:55:00
4:15 PM,51.6,35.1,53,29.94,10.0,Calm,Calm,-,N/A,,Clear,0,2012-11-25 22:15:00
4:35 PM,50.0,34.2,55,29.95,10.0,Calm,Calm,-,N/A,,Clear,0,2012-11-25 22:35:00
4:55 PM,48.9,34.2,57,29.95,10.0,Calm,Calm,-,N/A,,Clear,0,2012-11-25 22:55:00
5:15 PM,47.1,34.9,62,29.96,10.0,Calm,Calm,-,N/A,,Clear,0,2012-11-25 23:15:00
5:35 PM,44.1,34.9,70,29.96,10.0,SSE,3.5,-,N/A,,Clear,160,2012-11-25 23:35:00
5:55 PM,42.8,34.9,74,29.97,10.0,SSE,3.5,-,N/A,,Clear,160,2012-11-25 23:55:00
6:15 PM,41.9,34.3,75,29.98,10.0,Calm,Calm,-,N/A,,Clear,0,2012-11-26 00:15:00
6:35 PM,41.7,34.0,74,29.98,10.0,Calm,Calm,-,N/A,,Clear,0,2012-11-26 00:35:00
6:55 PM,41.5,33.8,74,29.99,10.0,Calm,Calm,-,N/A,,Clear,0,2012-11-26 00:55:00
7:15 PM,40.5,33.1,75,30.00,10.0,Calm,Calm,-,N/A,,Clear,0,2012-11-26 01:15:00
7:35 PM,38.1,33.3,83,30.00,10.0,Calm,Calm,-,N/A,,Clear,0,2012-11-26 01:35:00
7:55 PM,38.5,32.4,79,30.00,10.0,Calm,Calm,-,N/A,,Clear,0,2012-11-26 01:55:00
8:15 PM,37.0,32.5,84,30.01,10.0,Calm,Calm,-,N/A,,Clear,0,2012-11-26 02:15:00
8:35 PM,36.7,32.9,86,30.01,10.0,Calm,Calm,-,N/A,,Clear,0,2012-11-26 02:35:00
8:55 PM,36.0,32.4,87,30.02,10.0,Calm,Calm,-,N/A,,Clear,0,2012-11-26 02:55:00
9:15 PM,35.1,32.0,89,30.02,10.0,Calm,Calm,-,N/A,,Clear,0,2012-11-26 03:15:00
9:35 PM,36.1,31.8,84,30.03,10.0,Calm,Calm,-,N/A,,Clear,0,2012-11-26 03:35:00
9:55 PM,34.3,31.6,90,30.03,10.0,Calm,Calm,-,N/A,,Clear,0,2012-11-26 03:55:00
10:15 PM,33.8,31.1,90,30.03,10.0,Calm,Calm,-,N/A,,Clear,0,2012-11-26 04:15:00
10:35 PM,34.0,31.6,91,30.04,10.0,Calm,Calm,-,N/A,,Clear,0,2012-11-26 04:35:00
10:55 PM,33.4,31.1,91,30.04,10.0,Calm,Calm,-,N/A,,Clear,0,2012-11-26 04:55:00
11:15 PM,32.7,30.9,93,30.05,10.0,ENE,3.5,-,N/A,,Clear,60,2012-11-26 05:15:00
11:35 PM,32.5,30.7,93,30.06,10.0,NE,3.5,-,N/A,,Clear,40,2012-11-26 05:35:00
11:55 PM,32.5,30.7,93,30.06,10.0,NE,3.5,-,N/A,,Clear,40,2012-11-26 05:55:00